Theta_e
342 342 347 354 355 356 355 357 363 366 367 355 353 363 361 360 360 358 363 359 356 352 350 354 352 356 358 359 358 357 357 359 361 359 357 356 350 350 353 351 351 351 352 352 353 353 352 353 353 351 350 350 351 351 350 350 349 347 346 344 342 342 340 340 343 346 347 346 346 344 344 345 345 343 342 344 345 346 347 347 345 344 346 346 346 346 345 345 345 346 348 349 349 349 349 349 349
341 343 349 355 353 357 362 362 364 362 361 354 350 361 363 361 361 357 358 354 354 350 348 351 352 355 355 355 354 356 356 354 356 356 354 352 351 352 352 350 351 351 352 353 353 352 351 352 351 350 348 348 349 350 351 350 349 346 345 342 341 342 341 340 341 345 345 345 345 346 345 342 342 342 342 345 347 347 347 345 343 343 345 347 347 345 344 344 344 345 346 348 349 349 349 349 350
345 348 351 354 353 357 365 363 362 355 354 354 352 360 362 361 363 359 353 352 351 349 349 349 352 355 354 356 355 357 357 352 352 352 351 352 353 353 352 351 352 351 352 352 352 351 351 351 351 349 347 347 348 349 350 348 348 346 344 342 339 340 340 339 341 344 344 344 348 351 348 341 341 342 344 347 347 347 346 342 341 341 342 344 344 343 343 344 343 344 345 346 347 349 348 347 348
351 353 354 356 357 359 366 368 366 357 352 354 354 359 360 359 361 357 352 352 351 350 352 351 355 354 355 358 354 355 355 352 352 352 352 353 353 353 353 352 352 351 351 352 351 349 351 351 349 348 347 347 346 347 349 347 346 346 345 342 339 338 339 339 340 343 343 346 352 353 348 343 342 343 344 345 345 345 343 341 341 341 340 341 342 342 343 344 343 343 345 345 346 349 348 345 344
354 356 355 357 364 364 368 371 372 359 352 355 355 355 354 355 356 354 352 352 351 351 352 352 356 353 353 355 353 356 355 352 353 353 353 353 353 353 353 352 351 352 351 351 351 350 351 351 349 347 348 347 346 347 348 346 345 346 346 343 339 338 339 340 342 344 343 348 354 351 347 344 343 342 343 344 344 342 341 341 342 341 341 341 343 344 344 344 345 345 345 345 346 347 348 346 343
356 358 356 357 364 361 363 364 364 358 352 357 359 357 349 350 351 352 353 352 351 352 352 354 355 354 354 352 351 354 353 353 354 354 354 353 353 353 353 352 352 352 351 351 351 351 351 352 349 346 347 347 346 347 348 347 347 347 347 344 341 341 341 344 348 349 347 349 354 350 345 344 341 340 341 342 341 341 340 340 341 343 343 342 343 343 344 344 345 344 345 346 346 345 346 347 345
359 360 358 361 363 360 365 358 356 358 353 354 361 358 347 347 349 350 353 352 354 353 353 354 352 356 356 352 353 352 352 353 354 353 354 354 353 354 353 353 353 352 352 350 350 350 350 351 349 346 346 346 345 346 348 349 349 348 350 350 348 348 348 351 354 353 351 352 353 347 342 341 339 339 340 341 340 340 340 339 341 343 344 343 344 343 343 345 345 345 346 346 346 345 345 346 345
359 362 362 366 369 364 365 357 355 359 354 350 354 354 349 347 347 348 353 353 355 354 354 355 353 359 358 353 355 354 353 353 354 353 353 354 354 353 353 353 353 353 352 351 349 349 348 349 348 348 347 346 346 346 348 350 350 349 351 353 352 352 352 354 353 353 352 353 353 345 340 340 337 337 339 340 339 339 340 339 340 341 342 344 345 345 344 345 345 345 346 345 345 345 344 345 344
359 361 362 365 367 362 357 354 354 356 353 348 349 350 349 348 349 349 351 351 353 353 355 355 355 360 358 354 355 354 353 355 354 354 354 354 353 352 352 353 353 353 352 351 350 349 347 347 347 348 348 348 349 349 349 350 352 352 352 350 349 351 352 353 351 350 349 349 349 342 338 338 335 336 338 339 339 340 339 338 338 340 342 344 345 346 346 345 344 345 345 343 343 343 344 345 343
365 361 361 365 363 355 349 349 347 348 348 346 347 348 348 350 353 351 348 351 353 355 356 354 355 358 356 355 355 353 355 356 355 355 355 354 353 351 351 352 352 352 352 351 351 350 348 347 348 349 351 350 350 350 350 350 350 351 350 347 347 348 348 349 347 344 341 343 347 342 337 336 334 335 338 339 340 338 337 335 338 341 344 345 346 347 346 344 344 344 343 342 343 343 344 344 341
368 362 360 363 357 348 345 347 344 343 347 345 347 347 348 349 351 350 348 353 355 356 356 355 357 356 355 356 354 353 355 355 354 355 354 354 353 351 352 353 352 352 350 349 350 351 351 350 349 350 350 350 349 348 349 348 348 349 348 347 347 346 346 346 344 342 339 342 349 345 336 334 334 336 338 339 339 336 334 335 339 343 346 347 347 346 346 344 344 342 341 342 342 342 342 342 341
370 366 361 358 351 349 349 347 344 341 347 346 346 346 347 348 348 348 350 355 355 356 356 357 357 354 355 356 353 352 352 353 354 354 354 354 354 352 353 353 353 352 350 348 349 351 352 353 352 352 351 349 349 349 350 349 349 349 348 347 346 346 346 345 344 343 342 343 348 347 338 334 335 337 339 339 339 336 334 337 341 344 347 348 347 346 345 344 343 341 341 341 341 341 340 340 341
367 365 360 355 352 354 351 347 347 343 345 344 344 345 346 346 347 348 351 353 353 357 357 356 353 354 357 355 352 351 350 351 353 354 354 354 354 353 353 353 353 353 352 351 351 352 352 354 354 354 353 351 351 352 351 351 350 350 348 346 346 347 345 344 345 344 346 347 347 346 341 335 336 338 338 339 338 336 336 340 343 345 348 348 347 346 344 344 342 340 340 340 340 340 340 340 340
362 360 361 361 356 355 351 345 344 336 337 341 340 343 345 346 345 347 351 351 352 357 356 354 351 355 357 355 354 351 351 353 354 354 353 353 353 353 353 353 353 352 353 353 353 353 353 353 354 354 354 353 352 352 352 352 351 350 349 348 347 345 344 344 345 345 348 351 347 343 339 334 337 340 339 340 338 336 338 342 345 347 348 347 346 346 343 343 343 340 339 339 341 343 343 342 340
359 357 359 361 355 350 348 343 340 332 333 338 337 342 346 345 344 346 351 353 353 353 354 354 351 356 356 355 355 351 351 354 354 354 353 353 353 353 353 352 352 352 353 353 352 351 352 353 353 353 353 352 351 351 351 352 351 352 350 348 346 344 343 344 345 344 347 349 345 338 336 336 339 340 340 339 338 338 339 343 346 347 347 346 345 345 342 343 342 339 338 340 344 347 347 346 345
354 362 364 358 350 345 344 344 340 333 334 338 337 341 345 343 344 348 350 351 352 350 353 354 350 354 354 352 353 350 352 354 354 354 354 354 354 354 353 352 352 352 352 352 351 351 351 350 351 351 350 349 349 348 349 350 349 349 347 345 345 344 343 343 344 343 344 344 340 336 337 339 340 341 341 340 341 341 341 344 345 346 346 345 344 343 341 341 340 338 338 343 347 348 349 348 350
349 368 374 358 349 343 342 344 340 334 335 338 337 339 343 343 346 348 348 349 351 350 351 352 350 351 350 350 351 351 352 353 354 354 354 354 353 354 352 353 352 352 353 352 351 352 352 350 348 349 348 347 347 348 348 348 347 346 344 344 344 344 342 342 342 341 342 340 338 340 340 342 345 345 344 347 348 345 346 348 346 347 347 344 343 342 340 339 338 337 340 346 349 349 349 349 349
351 367 367 352 350 346 344 345 341 338 337 337 336 339 341 343 347 348 350 349 350 351 350 350 350 350 350 351 351 352 353 353 355 354 355 354 353 354 353 353 352 353 353 352 352 352 353 350 348 349 348 347 347 348 348 348 347 346 344 344 344 343 342 342 341 340 340 339 340 342 341 346 352 351 349 352 353 349 349 350 346 348 348 345 343 341 338 336 336 339 344 347 349 349 348 348 348
353 360 357 350 349 346 345 343 342 339 338 338 337 340 341 343 345 345 350 352 350 351 351 350 352 352 351 352 352 353 354 354 354 354 354 354 354 354 354 353 353 353 353 353 353 352 354 350 348 350 349 348 349 348 348 347 346 345 345 346 345 343 343 343 342 341 341 341 342 341 343 351 354 354 353 353 354 350 348 347 346 350 351 348 345 342 337 334 337 342 345 346 346 347 347 349 350
350 354 355 352 347 345 346 342 343 341 339 339 338 338 340 341 340 340 347 350 349 349 351 353 355 354 352 351 353 354 354 354 354 354 355 354 355 355 355 355 353 354 353 354 353 353 354 351 350 352 351 352 352 350 348 347 346 346 346 346 345 344 344 344 343 342 343 344 344 344 347 353 354 354 353 353 354 348 348 349 349 350 351 350 348 345 341 337 340 343 346 347 347 348 347 348 349
347 350 352 349 344 350 349 343 343 342 340 340 339 338 337 337 338 338 342 347 348 347 350 354 355 353 352 351 352 354 354 355 355 355 355 355 355 355 355 355 354 354 354 354 354 355 355 353 353 353 353 354 354 352 348 348 346 347 346 346 345 344 344 344 344 346 349 349 349 350 351 354 354 353 350 351 353 349 351 354 352 351 350 349 348 347 346 343 345 347 348 349 350 351 349 348 349
346 348 349 347 344 348 347 344 344 342 342 342 340 337 336 336 334 337 341 345 346 345 349 352 353 352 352 351 352 354 354 354 355 354 355 355 355 355 356 356 355 355 355 355 354 355 356 355 355 354 354 354 355 353 351 349 347 349 347 346 345 343 344 344 347 351 352 352 352 353 352 354 354 352 350 350 352 351 353 354 351 350 349 348 347 348 348 347 348 348 349 349 349 349 349 349 350
345 346 346 345 344 344 344 344 342 342 342 342 341 338 337 335 331 336 340 340 342 345 348 351 352 352 352 352 353 353 354 354 354 355 355 356 355 355 356 356 356 355 355 355 354 355 355 355 355 354 354 355 355 354 354 350 348 352 350 349 348 347 347 346 350 353 353 353 353 353 353 354 354 353 353 352 353 354 354 353 350 348 347 347 346 348 349 348 348 347 348 348 347 347 348 349 350
343 345 345 345 344 344 343 343 342 341 342 342 341 338 337 335 332 337 338 338 345 347 348 349 350 352 351 351 352 352 354 354 354 355 355 356 356 355 356 356 356 354 354 354 354 354 354 354 354 354 354 354 355 355 355 353 351 355 353 352 352 350 350 349 352 353 353 353 353 354 354 354 353 353 354 353 354 354 352 351 349 348 349 349 347 348 348 349 349 349 348 348 348 348 349 349 349
341 342 342 342 343 345 344 342 341 341 342 342 342 341 339 336 336 337 338 343 348 349 348 349 350 351 351 351 352 353 353 353 354 354 354 355 355 355 354 355 355 354 354 353 353 354 353 353 354 354 355 354 355 355 355 354 352 355 354 353 353 352 353 352 353 354 353 354 354 354 354 353 352 352 353 353 353 352 351 351 350 350 350 351 351 350 349 348 349 349 348 348 349 349 349 349 348
337 339 340 341 342 344 344 342 341 341 341 342 344 343 342 339 338 339 338 345 349 350 349 350 350 351 351 350 351 354 354 353 353 353 353 353 354 354 353 353 354 354 353 353 353 353 353 353 353 355 356 355 355 355 354 354 352 354 354 352 353 352 353 353 353 354 354 355 354 353 353 353 352 351 352 352 352 351 351 351 350 350 350 351 352 352 350 348 349 350 350 349 348 348 348 347 345
335 336 339 341 342 344 343 341 341 340 341 343 344 344 343 340 341 340 338 344 349 350 350 350 351 351 351 350 352 355 354 352 352 353 352 352 353 353 353 353 353 353 353 353 353 353 353 354 354 355 356 355 355 355 354 355 354 353 354 352 352 352 353 353 353 353 353 354 354 353 353 354 353 353 355 354 352 353 351 350 350 350 351 351 352 353 351 349 349 349 350 350 349 348 347 345 343
334 335 338 342 342 342 341 341 340 339 341 342 343 345 343 341 342 339 339 345 348 349 352 351 351 353 352 351 353 354 354 352 351 352 351 351 353 352 352 353 352 352 353 354 354 353 353 354 354 355 356 355 355 356 355 355 354 353 353 352 352 353 353 354 353 353 353 353 353 354 354 353 352 354 356 356 353 352 351 350 350 350 350 351 352 353 352 349 348 348 348 349 348 347 345 345 343
333 333 334 337 339 340 340 341 340 338 341 343 342 343 344 344 341 338 339 343 346 348 352 351 351 352 352 352 353 354 353 350 350 349 350 350 351 352 351 352 351 351 352 353 353 352 353 354 354 355 355 355 355 356 356 355 353 353 353 353 353 353 354 354 354 353 353 354 354 355 355 354 352 351 353 355 351 349 350 350 350 350 349 351 352 352 351 349 348 348 348 347 346 345 345 345 343
333 333 333 333 333 337 341 340 340 338 341 342 341 336 339 346 342 337 337 341 345 348 350 350 350 351 351 352 352 353 351 349 349 348 348 350 351 351 351 352 352 351 352 353 353 352 353 353 354 354 354 355 355 354 355 354 353 353 353 353 354 355 354 354 354 353 353 354 354 354 354 354 353 352 353 353 351 349 350 350 350 350 348 349 350 349 349 350 349 348 348 347 345 345 345 344 342
333 332 331 332 325 328 339 339 339 339 339 342 341 332 337 347 342 338 335 339 345 347 348 349 350 351 350 351 352 352 351 350 349 347 348 349 350 351 352 352 352 352 352 352 352 352 353 354 354 354 354 354 354 353 354 354 353 353 354 354 355 356 355 355 353 352 353 353 353 354 352 352 352 351 351 351 349 349 349 349 350 349 348 348 348 347 348 350 349 348 348 346 346 346 345 343 343
331 325 322 329 323 325 337 339 338 339 339 341 341 333 339 347 342 339 336 339 344 346 347 347 349 351 349 351 353 352 352 351 349 349 350 349 350 352 352 353 352 352 353 352 352 352 352 353 353 355 354 353 353 353 353 353 353 354 355 355 355 356 356 355 353 352 353 353 354 354 353 352 351 350 350 349 347 348 348 348 349 349 348 348 347 347 348 349 348 348 348 346 346 345 343 341 342
329 326 318 322 322 323 331 337 339 338 340 341 340 337 342 347 344 340 338 339 343 345 346 346 348 350 350 351 353 352 352 353 352 351 351 350 350 352 352 353 353 352 352 353 353 352 352 352 352 353 354 353 351 353 354 353 354 355 355 356 355 355 356 355 355 354 354 354 354 354 353 353 352 352 351 349 348 348 349 347 348 349 348 349 348 347 348 349 348 347 346 346 346 345 342 341 341
324 327 321 322 324 322 324 334 338 337 340 341 341 342 345 349 345 342 341 339 341 343 345 345 347 350 350 351 353 352 352 354 353 351 352 352 351 352 353 353 354 354 353 353 353 353 353 352 352 353 353 354 351 351 354 354 353 354 355 356 355 355 355 355 354 354 353 354 354 353 353 353 353 354 352 350 349 349 349 348 348 349 348 348 348 347 349 349 348 346 345 346 344 343 341 339 339
318 320 319 320 323 323 323 331 338 338 341 341 341 342 346 348 346 344 342 339 340 342 345 345 347 349 350 352 353 352 352 353 353 350 351 352 352 352 353 354 355 355 354 353 354 354 353 352 353 354 353 355 353 351 353 354 354 354 355 355 354 354 354 354 354 353 353 354 354 353 354 355 355 355 353 351 351 348 348 348 349 349 348 348 347 348 350 349 347 345 345 343 341 340 338 338 338
324 323 321 319 319 322 328 335 337 338 340 342 341 339 344 347 345 346 344 342 341 341 345 345 346 349 349 353 354 352 353 353 351 350 351 352 352 352 353 355 355 355 355 355 354 353 354 353 352 354 354 355 355 352 352 354 355 354 355 354 353 354 353 353 353 353 354 355 354 353 354 356 356 355 353 352 351 348 348 350 350 350 349 348 348 349 349 348 345 344 344 340 338 338 337 339 340
329 327 324 323 320 322 331 337 338 338 338 339 343 341 345 347 345 348 345 343 344 341 343 344 344 348 349 352 354 353 353 352 351 350 351 352 352 351 353 354 355 356 356 355 356 354 354 354 353 354 355 355 355 355 354 354 355 355 355 355 353 353 353 352 353 354 355 355 355 354 354 355 355 355 354 353 352 351 352 352 350 351 350 349 351 350 348 347 344 343 343 338 337 338 338 339 340
330 327 324 322 322 323 333 338 336 339 337 337 345 342 345 347 346 349 347 344 344 342 342 341 343 347 349 352 354 354 353 351 351 351 352 351 351 352 352 355 355 355 356 356 356 355 354 355 354 354 355 355 356 356 356 355 355 355 354 355 354 353 353 352 353 353 354 355 355 354 354 354 354 355 355 354 354 354 354 353 351 351 350 351 352 350 348 347 345 343 341 338 339 339 339 340 340
329 328 323 319 323 326 331 337 338 339 336 337 343 341 343 348 346 349 348 346 345 344 344 341 342 345 348 351 353 353 354 353 353 353 352 351 352 352 352 354 355 355 356 356 357 355 355 356 356 355 356 357 357 357 357 357 356 356 354 355 355 354 354 353 352 354 355 356 354 353 353 353 354 354 354 355 354 354 355 353 352 352 351 352 352 349 348 346 345 344 339 338 339 339 340 341 340
328 327 321 317 324 324 321 329 338 339 336 339 342 340 345 349 346 349 348 347 347 345 345 343 341 344 346 348 350 353 354 354 354 353 352 352 352 352 352 354 354 355 355 355 357 357 355 356 356 356 356 357 359 358 357 357 357 356 356 355 354 354 354 354 353 355 356 356 354 353 352 351 352 353 354 355 355 355 355 355 354 354 353 352 351 348 346 345 344 342 338 338 340 340 342 342 341
328 328 324 320 326 326 323 329 337 337 335 340 339 331 337 348 348 350 349 348 349 346 347 346 344 343 344 346 347 351 354 354 354 353 353 353 352 352 352 353 354 354 355 355 356 357 356 356 356 357 357 356 358 359 357 357 358 357 357 356 355 355 355 355 355 356 357 355 354 353 351 351 352 353 354 355 356 356 356 356 356 355 352 351 349 346 345 345 344 341 340 341 341 341 342 342 341
323 329 329 327 329 330 329 331 331 327 326 336 336 322 326 344 347 350 350 349 350 349 349 348 348 347 344 346 347 348 352 353 354 353 352 353 352 352 353 353 354 354 355 355 355 356 357 357 356 357 357 357 357 359 358 358 358 358 358 357 356 356 356 356 356 357 356 354 354 353 351 351 352 353 354 355 357 357 356 355 355 353 351 348 346 345 346 345 343 342 341 341 340 340 341 341 341
317 326 332 331 331 329 328 327 324 320 321 335 335 325 324 335 340 348 349 348 351 351 350 348 352 352 345 345 347 347 351 353 354 354 352 353 352 352 353 353 354 354 355 356 355 356 356 356 357 357 358 358 357 357 358 358 358 358 358 357 357 356 356 355 354 354 354 353 353 353 353 353 353 354 356 356 357 357 356 355 353 350 349 348 347 347 346 342 340 342 342 340 340 342 341 341 342
317 328 332 331 331 329 329 326 321 323 328 333 334 331 326 326 335 348 349 348 352 353 352 350 351 355 348 345 347 347 349 352 355 354 353 353 353 353 354 354 354 354 354 355 355 356 356 356 357 357 358 359 358 357 358 359 358 358 359 358 357 356 354 353 352 353 354 353 353 354 355 355 355 356 357 357 356 356 355 353 350 349 348 347 347 346 343 340 341 342 342 341 340 341 341 341 341
324 331 331 331 331 330 331 326 320 324 324 321 325 328 325 324 337 350 351 347 348 351 354 353 351 354 352 348 348 347 348 351 354 355 354 354 353 354 354 355 355 354 354 355 355 355 356 356 357 358 359 359 360 359 358 359 359 358 359 359 357 356 355 353 353 353 354 354 354 356 356 356 356 357 358 357 355 355 354 351 350 349 348 346 343 342 342 341 343 342 340 340 337 337 341 341 339
327 331 330 331 331 330 331 326 321 321 320 317 321 323 323 324 333 343 347 342 344 351 352 352 352 352 353 351 349 349 349 350 352 354 355 354 353 354 355 356 355 355 355 355 355 356 356 357 358 358 359 359 360 360 359 359 359 360 360 360 359 357 355 355 354 354 354 355 355 356 356 356 358 358 358 357 355 356 353 350 350 349 348 345 341 341 343 342 342 341 337 338 338 337 340 339 337
328 330 329 328 329 331 331 329 323 317 316 319 322 322 323 324 328 336 344 344 346 352 351 351 351 350 352 351 349 350 350 350 351 352 355 354 353 354 355 356 356 355 356 355 356 356 357 358 358 358 359 359 359 360 359 359 359 360 360 360 359 357 356 356 356 356 355 356 356 356 356 356 357 357 357 357 356 355 352 349 349 349 347 345 342 342 343 341 340 337 335 339 341 339 338 336 337
326 329 327 321 321 323 322 321 322 316 315 319 322 322 320 319 326 338 346 350 349 350 350 351 350 349 351 352 348 349 351 351 350 350 353 354 355 355 355 356 357 356 357 357 357 357 357 358 359 360 360 359 360 360 360 359 359 360 360 359 359 358 357 357 358 357 356 357 356 355 355 354 355 357 357 356 355 354 352 350 349 348 346 344 343 343 342 340 339 335 334 340 342 338 336 336 337
326 325 321 315 314 316 316 315 317 317 317 320 322 321 316 318 332 343 346 349 348 349 349 349 348 348 351 352 350 349 350 351 350 350 352 354 356 356 355 356 356 356 357 357 357 358 359 359 360 361 361 360 360 360 361 360 360 359 359 360 360 359 358 358 358 357 356 357 356 354 353 353 354 356 356 355 354 353 352 350 348 347 345 343 342 341 340 339 339 337 336 338 338 335 335 338 338
323 319 315 314 314 315 317 316 316 317 318 320 321 321 315 316 332 346 345 345 346 347 348 347 347 348 349 351 350 348 348 350 351 351 351 353 357 356 355 355 356 357 357 357 357 358 359 360 361 361 362 362 361 361 361 361 361 360 360 360 360 360 360 358 357 356 356 356 355 353 353 353 354 355 355 354 353 353 351 350 348 346 344 341 339 339 340 339 338 338 337 336 334 332 334 337 338
323 324 320 316 314 315 316 316 315 316 318 319 319 319 315 315 332 347 344 343 345 345 347 347 346 347 348 349 349 348 348 350 351 352 352 354 356 355 354 354 356 358 357 357 357 358 359 361 362 362 363 363 362 362 362 362 362 361 360 360 360 360 360 359 357 356 356 355 354 353 353 353 354 354 355 354 353 353 351 349 347 344 342 340 338 338 338 339 338 339 338 335 332 331 333 335 335
322 327 320 314 317 318 316 317 317 315 317 318 315 318 324 331 344 350 341 341 344 343 345 347 347 347 347 348 349 349 350 350 352 353 354 356 357 355 354 355 355 357 357 357 357 357 359 361 362 363 363 364 363 363 363 363 362 361 361 361 361 361 360 359 357 356 356 354 353 353 353 354 353 354 354 354 353 352 351 349 344 342 341 340 339 338 339 339 338 339 338 336 336 335 335 335 334
321 319 314 318 325 324 315 314 316 315 316 317 314 316 325 331 336 342 342 342 342 343 345 344 346 348 347 348 350 350 351 351 353 356 356 357 358 356 354 355 355 357 357 357 356 357 358 361 363 363 364 365 364 363 363 363 363 362 361 361 361 361 360 360 358 357 356 355 353 353 354 354 353 353 354 353 353 352 350 348 344 342 342 341 340 340 340 340 338 339 338 337 337 338 336 336 336
320 314 316 323 326 325 319 314 315 316 316 316 313 314 319 319 325 338 343 343 342 342 344 344 345 348 348 347 349 352 352 352 353 356 357 357 359 357 355 354 355 356 357 356 356 356 357 360 363 364 364 365 365 364 364 363 363 363 362 362 361 361 361 360 359 358 357 356 354 354 354 354 353 353 353 353 352 352 350 348 344 342 341 340 339 338 339 340 339 338 338 337 337 337 337 336 336
323 319 323 323 316 316 317 314 315 316 316 315 314 315 317 317 324 333 336 342 344 343 343 344 345 348 348 346 349 350 351 352 354 355 355 355 356 355 355 354 354 354 356 356 356 356 358 360 362 364 364 365 365 364 364 363 362 362 362 362 361 361 361 360 359 359 358 357 356 355 355 354 354 353 352 351 351 351 350 346 343 341 340 340 339 338 338 340 339 337 337 337 338 337 337 338 337
326 324 325 323 318 316 316 315 314 315 316 316 316 315 316 324 336 341 340 343 343 343 345 344 343 347 348 347 348 349 349 351 353 352 354 354 354 354 353 353 354 355 355 356 356 356 358 359 362 363 364 365 365 364 364 364 362 362 362 362 362 361 361 360 360 359 359 358 356 355 355 355 354 353 352 351 350 350 348 345 342 341 341 340 341 340 339 339 339 337 336 336 337 336 336 337 338
320 318 317 317 319 319 318 316 313 313 315 318 319 315 316 333 348 347 348 348 343 343 346 345 342 344 347 347 347 347 347 350 352 351 352 352 352 351 352 352 354 354 357 357 357 357 358 359 361 363 364 365 365 365 364 364 363 362 362 362 362 362 361 360 360 359 359 358 357 356 355 355 355 354 353 352 350 349 346 344 342 342 342 341 341 341 340 339 339 339 338 337 336 335 336 337 337
322 317 316 316 317 315 313 314 313 312 312 315 318 315 320 340 345 342 347 348 345 345 345 345 343 343 345 346 345 346 348 351 352 352 351 351 352 351 350 352 353 353 357 358 358 358 358 359 361 362 365 365 365 365 365 364 363 362 362 362 362 362 361 361 360 360 359 358 357 356 355 355 355 354 354 352 350 349 347 344 343 342 342 342 341 341 340 339 338 339 340 339 338 337 338 338 337
Wind_Speed
17 16 15 16 16 10 3 1 1 1 1 2 3 1 0 2 5 7 7 9 4 3 6 7 9 8 10 10 11 12 10 2 1 3 2 4 15 18 15 19 21 20 23 24 24 25 26 26 25 26 27 28 28 27 27 26 26 26 26 26 25 24 24 23 22 22 21 21 21 22 22 21 20 19 18 18 17 17 17 16 15 14 13 12 12 12 11 11 11 12 13 13 13 13 14 13 12
19 18 15 13 13 7 1 1 1 1 2 3 2 2 0 2 3 3 7 8 6 7 8 10 13 14 15 12 11 13 12 8 5 6 5 13 19 16 17 20 23 23 24 24 25 26 26 26 25 26 28 28 28 28 27 26 26 26 25 25 24 23 23 22 21 21 20 21 21 21 21 19 19 17 17 17 17 16 15 15 14 13 12 11 11 11 10 10 10 11 12 12 13 12 13 13 13
22 21 19 15 7 2 0 0 1 2 2 2 1 2 2 3 2 3 12 12 10 10 9 12 12 12 14 12 9 10 8 7 11 10 9 18 17 16 19 19 24 25 26 27 27 28 27 25 25 26 28 28 28 28 26 26 25 25 24 24 23 22 21 21 20 20 20 20 21 21 19 18 17 16 16 16 16 15 14 14 13 12 11 10 10 9 9 9 10 10 11 11 12 11 11 12 12
22 22 24 15 3 1 1 1 2 1 2 2 2 2 6 6 6 7 13 11 9 10 9 11 10 9 14 15 10 10 10 7 11 10 9 15 18 22 23 20 24 26 27 28 28 30 28 25 26 26 27 27 28 27 25 25 25 24 23 22 22 21 21 19 19 19 19 20 20 20 18 17 16 15 15 15 14 13 12 13 12 11 11 10 9 8 8 8 9 9 9 10 11 10 10 10 11
21 20 20 10 1 2 1 1 1 0 3 2 2 2 8 9 10 13 12 10 11 12 11 9 8 10 13 12 7 6 9 10 12 11 12 17 25 28 25 24 25 25 27 27 29 31 29 26 26 26 26 25 27 27 25 24 24 23 22 21 22 21 20 19 18 19 19 20 19 18 17 16 15 14 14 13 13 12 12 12 12 11 11 11 9 8 6 6 6 7 8 8 10 10 9 9 9
18 16 13 5 1 2 1 0 2 2 6 3 3 4 8 10 11 14 12 12 13 14 13 10 11 12 11 9 7 6 10 12 12 12 18 23 27 29 27 28 26 26 26 26 28 30 30 27 26 27 25 25 26 26 24 24 23 22 21 21 22 21 20 19 18 18 18 19 18 17 16 14 13 13 13 13 12 12 11 12 11 11 11 10 9 8 6 5 5 6 7 7 8 9 8 8 9
13 10 6 2 2 1 1 2 4 3 8 5 4 5 7 11 10 13 14 13 12 13 14 12 13 12 9 8 7 11 17 15 13 17 26 28 28 29 28 29 27 26 25 26 27 29 31 28 27 27 25 25 24 25 24 23 22 22 21 21 21 21 20 19 18 18 18 18 17 16 15 14 12 12 12 12 12 11 11 11 10 10 10 10 9 8 7 6 5 5 6 6 6 7 8 8 8
10 5 1 1 1 1 2 3 5 4 7 7 8 6 6 10 9 12 15 12 10 11 14 14 14 13 9 8 7 13 21 19 19 26 31 30 28 29 30 30 28 25 25 28 28 29 30 29 27 26 25 25 24 23 23 22 21 21 21 22 21 20 20 19 18 18 17 17 16 15 14 13 12 11 11 12 11 11 11 10 9 10 10 9 8 8 7 6 5 4 5 6 6 6 7 7 8
6 3 0 1 0 2 3 5 5 8 8 9 10 6 7 8 4 7 14 13 12 12 15 15 13 14 10 11 10 11 20 24 28 31 29 29 28 30 31 29 27 26 26 29 30 30 31 30 28 25 24 24 23 22 22 22 21 21 21 22 22 21 20 18 18 18 17 16 15 13 13 12 11 10 11 11 11 10 10 9 9 9 9 9 8 7 6 6 7 5 5 6 6 7 8 8 9
1 2 1 1 1 3 4 6 5 7 8 7 7 7 7 8 4 2 12 15 15 15 17 16 14 16 13 12 10 10 20 27 31 29 28 29 28 29 29 27 26 27 28 31 31 31 31 30 29 26 24 23 23 22 22 22 21 21 20 21 20 20 19 17 17 17 16 15 14 13 12 11 10 10 10 10 10 9 9 9 9 10 9 8 7 7 6 7 8 8 7 8 8 9 9 9 10
1 3 2 2 2 3 4 5 5 4 8 6 5 7 6 8 8 6 12 17 17 18 17 16 14 15 14 10 7 14 27 28 28 29 28 28 29 30 28 26 25 26 31 33 32 30 29 29 28 26 24 24 24 24 23 22 22 21 20 20 19 18 17 16 16 16 15 15 14 13 12 11 10 10 9 9 9 8 8 8 9 9 9 8 7 7 6 7 9 9 9 11 11 11 11 11 11
2 3 2 3 2 3 3 5 6 4 8 6 6 5 5 5 8 10 16 16 17 17 14 12 12 12 12 9 6 17 28 26 27 29 29 28 29 31 29 27 26 27 31 33 31 29 28 27 26 25 25 25 24 24 23 23 22 21 20 20 19 18 17 16 16 16 15 14 14 13 11 10 9 9 8 8 7 7 7 8 8 9 8 8 7 7 7 7 9 9 10 11 11 12 12 11 11
1 4 1 2 2 3 4 6 6 4 6 5 6 5 5 4 8 13 15 15 15 14 12 14 14 12 11 8 8 14 21 24 27 28 29 28 27 28 28 28 27 27 29 30 29 27 28 27 26 25 24 24 23 23 22 22 22 20 20 19 18 17 16 17 16 16 15 14 13 12 11 9 8 8 7 6 6 6 7 7 8 8 8 7 6 6 6 7 8 10 11 12 12 13 13 12 11
2 2 2 2 3 3 4 5 4 4 5 4 6 7 6 3 6 12 15 15 13 13 14 16 15 13 11 9 8 8 16 26 28 26 28 28 27 26 27 28 28 28 28 28 28 27 26 25 26 26 25 24 24 23 22 21 21 20 19 19 18 17 17 17 16 16 15 14 13 12 10 8 8 7 6 5 5 5 6 7 7 7 7 7 6 6 6 6 8 10 11 12 13 13 13 13 12
4 1 1 2 3 4 4 5 2 6 4 5 5 8 10 6 5 10 15 14 12 13 14 15 12 10 10 11 9 8 19 30 28 26 27 28 27 26 27 28 29 28 28 28 29 28 27 25 26 27 26 26 25 25 24 23 22 20 19 19 18 17 17 17 16 16 15 14 12 11 9 8 8 7 6 5 4 4 5 6 5 6 6 6 5 5 6 6 8 10 10 11 12 13 14 14 13
3 1 1 2 3 4 5 5 2 6 4 5 3 5 11 8 7 11 14 13 12 12 11 10 8 8 13 12 13 19 27 31 29 27 27 27 26 26 27 28 29 28 27 28 29 28 27 27 27 27 27 26 25 25 24 24 22 21 19 18 18 18 17 17 16 15 14 13 11 10 9 8 7 6 6 5 4 4 4 4 4 4 5 5 4 5 6 7 8 9 10 10 10 11 12 13 12
3 2 2 1 4 5 6 5 4 5 4 6 4 5 8 9 9 11 13 16 14 11 9 10 9 12 15 14 22 30 31 30 30 28 25 24 23 24 26 28 28 27 27 28 28 27 27 28 29 28 27 26 25 24 23 23 21 20 19 18 18 17 16 16 15 14 13 12 11 10 9 8 6 6 5 5 3 3 3 3 2 2 3 4 4 4 6 7 8 8 8 8 8 8 9 10 9
3 1 1 3 3 4 8 7 4 5 7 5 6 5 6 9 13 12 13 15 14 12 10 11 13 15 17 22 30 32 30 30 29 28 24 21 20 20 21 25 27 26 27 27 27 27 27 28 29 28 27 26 25 24 23 22 21 20 18 18 18 16 15 15 14 14 13 12 11 10 9 8 6 5 5 6 3 2 3 3 2 2 3 4 5 5 5 7 8 8 7 6 6 6 7 7 7
3 2 2 3 4 5 7 9 8 2 8 7 9 9 6 9 11 10 12 15 14 12 11 12 16 19 20 25 30 30 29 28 28 27 24 21 20 19 19 22 24 26 27 27 27 28 28 29 29 28 27 25 24 23 23 22 22 20 19 19 18 16 15 14 14 14 13 13 12 11 9 8 7 6 6 6 5 3 2 3 3 2 2 3 5 6 6 7 6 6 6 4 4 5 5 4 5
5 4 2 5 7 5 6 10 13 3 6 7 9 10 8 9 7 7 13 16 14 12 12 13 17 21 21 21 25 29 28 26 27 26 23 22 21 20 21 21 23 25 26 27 27 28 28 28 28 27 26 25 24 23 23 23 22 22 21 20 19 17 16 16 15 14 13 12 11 10 10 9 8 7 6 6 7 5 3 2 2 2 1 2 3 4 6 6 5 4 3 2 0 3 3 2 3
5 6 5 8 6 2 4 11 15 6 3 4 7 11 10 8 6 7 13 14 10 11 15 18 19 22 22 21 23 26 26 25 26 25 23 23 22 21 22 22 23 24 26 26 27 28 28 27 27 26 26 26 24 24 24 24 23 22 22 21 20 19 18 17 16 15 13 12 10 10 9 9 9 8 6 7 7 5 3 2 3 4 3 1 1 1 4 4 3 3 2 3 4 5 2 2 3
6 9 10 12 9 3 5 11 15 8 1 1 5 9 10 9 7 10 14 11 9 13 19 22 21 21 23 23 22 22 22 21 22 23 22 23 23 22 22 23 23 24 25 25 27 28 28 27 27 27 27 27 26 25 24 24 24 23 22 22 21 20 19 18 17 16 15 13 11 11 10 9 9 7 6 6 5 5 4 4 3 3 1 0 1 0 2 2 1 2 2 2 2 4 4 1 3
6 9 13 16 13 6 5 11 13 7 4 3 3 5 9 8 7 12 15 12 11 18 22 24 22 22 24 23 21 20 19 19 20 22 23 24 25 24 25 25 24 25 26 25 27 28 28 28 27 28 29 28 26 24 23 24 24 23 22 22 21 20 20 19 18 17 17 16 13 12 11 10 10 8 8 6 6 6 5 5 3 2 1 1 1 1 1 1 1 1 2 2 2 2 1 3 3
10 9 14 17 14 8 7 11 10 8 9 5 4 4 7 7 5 8 10 10 17 22 23 24 22 23 24 21 20 19 19 20 21 24 25 24 24 26 27 26 26 26 27 27 27 28 29 29 29 29 30 29 27 25 23 23 24 23 21 21 21 19 19 18 18 17 17 17 15 12 12 12 11 10 10 8 8 7 5 4 2 2 3 2 2 2 0 1 1 0 1 0 3 2 2 2 1
13 12 13 12 11 9 9 10 10 8 8 6 6 4 5 6 6 6 5 15 24 23 22 23 22 22 21 19 20 18 18 19 21 24 26 25 25 26 26 27 28 25 27 29 28 29 30 30 30 29 29 29 27 26 26 23 24 24 21 22 22 20 18 17 18 18 16 17 15 13 14 13 11 10 11 10 9 7 5 4 2 3 3 2 2 2 2 1 2 3 1 2 3 2 1 1 1
12 14 14 12 11 13 14 13 13 9 8 8 8 6 5 4 8 6 6 20 24 22 22 22 22 21 19 18 18 16 16 18 20 23 25 26 27 27 26 27 29 26 28 31 28 29 30 30 30 30 29 29 27 25 26 24 23 25 22 22 22 22 20 17 18 19 17 17 16 14 14 12 9 8 11 11 9 6 6 4 3 3 2 4 5 2 1 1 2 4 4 3 2 1 1 1 2
12 14 14 16 14 15 15 12 12 10 11 11 10 8 7 5 5 4 9 22 23 23 21 20 21 20 19 18 16 15 15 18 22 23 23 25 26 27 27 28 29 27 28 31 30 29 30 30 30 30 29 29 27 24 25 24 23 25 23 21 21 22 20 17 18 18 16 16 16 15 14 12 9 8 10 10 8 6 5 3 3 3 2 4 5 2 1 2 2 3 3 3 2 1 2 1 2
15 15 10 16 16 14 10 9 11 8 11 14 11 9 8 6 4 4 13 22 23 24 21 20 19 17 17 17 16 14 13 19 24 22 21 23 24 27 28 29 31 29 30 32 31 30 30 31 30 30 30 29 28 25 24 24 23 23 22 20 19 19 19 18 18 16 15 15 15 16 16 16 13 10 9 8 7 5 4 5 5 4 4 4 4 3 2 1 2 2 2 2 1 3 3 2 2
15 14 7 9 12 11 9 9 11 7 9 15 12 8 7 6 6 8 16 19 21 23 21 20 17 15 15 15 14 13 14 19 22 20 22 25 26 28 28 31 33 30 31 33 33 33 31 31 30 29 29 29 28 25 24 24 23 21 21 21 19 18 18 17 16 14 15 15 14 16 17 16 15 13 11 8 7 6 5 6 6 5 6 6 5 4 3 2 2 2 3 3 4 3 1 1 2
12 12 7 4 4 7 10 9 11 10 10 15 12 5 6 7 8 11 15 16 20 21 19 18 15 14 14 13 13 13 14 16 19 21 24 26 27 29 28 30 33 30 31 33 34 34 30 31 30 29 29 28 27 25 24 23 23 21 20 21 19 18 18 17 16 14 14 14 13 13 14 13 13 12 12 9 7 7 6 6 5 6 8 7 6 5 4 5 4 4 5 5 5 2 1 2 4
10 10 7 3 1 4 9 11 11 9 11 16 12 4 6 8 9 13 13 14 20 18 17 16 14 14 13 12 13 14 13 13 21 24 23 26 28 28 28 30 32 31 31 32 35 35 31 31 30 30 31 30 28 26 25 24 23 22 20 21 19 17 18 17 17 15 13 14 13 12 12 12 12 12 11 8 7 7 7 8 6 9 11 9 6 4 4 6 5 5 5 5 5 2 3 5 5
7 7 6 3 2 6 8 13 12 7 10 15 13 4 6 9 10 15 12 13 20 17 16 16 14 16 13 12 13 14 12 12 21 25 23 26 27 27 29 30 32 32 31 30 34 36 33 31 31 31 31 31 29 26 26 24 23 23 20 20 19 18 18 16 15 15 14 14 13 12 12 11 11 11 10 9 9 8 8 9 6 10 13 9 5 3 4 6 5 5 5 5 5 4 4 5 4
7 5 4 3 5 7 7 11 13 8 8 12 12 5 6 8 8 14 13 12 19 17 16 16 15 16 14 11 12 13 11 10 17 22 24 27 27 27 29 30 31 33 33 30 32 35 33 32 32 31 31 30 30 26 25 26 24 22 21 19 19 19 19 16 15 15 15 15 14 13 12 11 10 10 10 11 10 10 9 9 7 9 11 8 5 3 4 6 6 5 5 4 3 3 2 4 6
5 4 4 7 8 7 5 8 10 11 10 9 10 6 6 8 8 13 14 13 16 16 17 17 14 14 13 11 12 12 12 11 13 20 27 28 27 28 29 30 31 33 35 32 31 33 32 32 32 32 32 30 31 28 24 25 25 22 21 19 18 20 20 17 16 15 14 14 14 15 13 11 10 10 11 11 11 11 11 8 7 10 10 7 5 4 5 6 6 5 4 4 2 3 3 4 5
7 6 4 7 10 10 7 7 8 11 13 10 10 7 6 11 10 10 14 14 14 14 17 17 15 15 14 12 13 12 12 13 13 20 29 30 29 28 29 31 30 32 35 34 32 32 30 31 30 31 34 32 31 31 25 23 24 23 22 20 18 19 19 17 16 16 15 13 14 15 13 11 11 11 11 12 12 11 12 9 8 11 10 7 5 5 6 6 6 6 5 5 3 3 4 3 3
12 11 8 8 9 9 9 7 10 13 11 9 11 9 6 11 12 9 13 14 11 13 15 15 14 15 14 13 13 13 13 13 14 21 29 30 31 30 29 31 31 30 34 35 34 33 30 30 30 29 32 33 31 32 29 24 23 22 21 21 19 17 18 17 15 16 16 14 14 13 13 12 12 12 11 12 13 11 12 11 10 11 9 7 7 6 6 8 7 7 6 5 3 4 5 4 3
15 13 10 9 8 9 11 8 13 14 9 7 11 11 9 11 12 10 13 15 11 13 15 14 14 14 14 15 14 15 14 13 15 21 27 30 31 31 29 30 31 29 31 35 35 36 33 30 32 30 29 32 32 32 32 28 25 24 22 22 21 18 18 18 16 15 15 15 15 14 14 14 13 13 12 12 13 13 13 13 13 12 11 9 8 7 8 9 7 7 7 4 3 4 3 2 4
15 13 10 9 8 8 9 7 15 15 8 9 11 11 10 12 12 9 13 16 13 13 15 15 16 16 15 15 17 16 13 12 14 16 21 28 29 30 30 29 32 31 30 34 35 36 35 31 33 33 30 31 32 32 31 30 28 27 25 23 22 20 19 19 18 16 16 16 16 16 16 15 15 14 14 14 14 15 15 15 15 13 12 10 8 8 10 10 8 7 7 5 3 3 2 1 4
12 10 9 9 8 8 10 6 14 16 7 8 13 10 9 11 12 9 10 13 12 13 15 15 16 16 15 16 16 16 14 13 14 14 17 24 29 30 30 29 33 34 32 32 33 35 35 33 32 34 33 30 31 33 31 30 29 28 26 24 22 20 19 20 19 18 18 17 16 17 18 17 16 15 15 15 16 16 16 15 14 13 11 10 10 13 12 11 11 9 7 6 4 4 3 2 4
11 9 7 8 9 8 7 6 10 14 8 9 14 10 6 9 11 9 9 10 9 11 15 15 16 16 17 18 17 17 17 16 16 16 15 19 26 29 29 29 32 34 33 32 33 35 36 36 33 34 35 31 29 32 32 30 29 27 24 23 21 19 18 20 20 20 20 19 17 18 20 19 17 17 15 16 17 17 16 15 13 12 10 10 13 14 13 13 13 9 8 7 5 4 2 3 4
12 13 10 8 10 11 9 9 8 9 9 10 11 7 4 8 11 9 8 8 9 10 13 14 14 16 17 18 17 17 19 18 17 18 17 16 21 26 29 30 32 33 34 35 36 36 36 37 36 34 35 34 30 30 31 30 28 26 23 21 21 19 18 20 22 21 20 21 20 20 20 20 18 17 16 17 18 17 17 16 13 12 11 13 14 13 12 13 13 10 8 8 8 5 2 4 4
10 15 15 13 12 13 13 14 8 3 5 6 7 4 3 8 12 11 8 9 10 10 12 13 13 15 16 16 16 16 18 18 18 19 19 17 20 26 29 31 31 31 34 37 38 37 35 36 37 34 34 36 34 30 29 30 29 28 26 24 23 22 20 22 22 22 22 23 22 20 20 20 18 17 17 18 18 17 17 16 14 13 15 15 15 13 11 12 13 12 9 8 9 5 4 5 2
7 11 15 17 17 16 16 16 8 2 4 6 8 5 3 6 11 13 12 12 12 10 11 14 11 12 15 15 15 16 16 16 17 19 19 19 20 23 26 30 32 32 34 37 37 37 36 35 37 36 35 35 36 33 30 30 31 30 28 27 26 24 23 22 21 20 23 24 22 20 20 19 19 18 19 19 18 17 16 15 16 16 16 16 14 13 13 13 12 11 10 9 9 7 6 6 3
8 8 12 15 17 18 18 15 9 4 4 7 12 9 4 5 8 13 14 13 13 11 11 13 11 11 14 16 16 17 17 17 17 17 19 19 20 22 25 30 33 33 33 34 34 36 37 37 38 37 35 34 35 36 33 31 33 32 30 28 27 24 23 23 21 19 22 23 21 20 20 20 18 19 20 20 19 18 17 18 19 18 17 16 15 15 14 14 13 12 12 11 9 8 7 6 6
9 9 11 12 15 17 16 13 9 6 4 5 11 11 5 4 6 10 14 14 13 13 12 12 12 11 12 14 16 18 18 18 18 18 20 19 21 26 29 31 33 33 33 33 34 36 37 38 38 37 36 34 33 35 36 34 33 33 31 29 28 26 23 22 22 21 20 20 21 21 22 21 20 19 20 21 20 19 19 21 21 20 19 16 16 16 15 16 16 14 13 11 9 9 8 7 6
10 11 12 11 12 13 12 11 7 5 6 6 9 12 6 4 5 8 10 12 13 12 10 10 10 11 11 12 15 17 16 16 17 18 19 20 24 30 32 32 34 34 34 34 34 34 35 36 38 38 38 36 35 35 37 36 34 34 33 30 29 28 25 22 22 22 22 21 22 23 24 23 22 21 22 23 22 21 22 23 22 22 21 17 17 18 17 17 16 13 12 11 11 12 10 7 6
10 11 12 11 10 9 7 7 6 5 5 6 9 12 9 5 6 8 9 11 14 12 10 10 12 13 13 12 13 15 15 14 16 17 18 21 27 32 33 32 35 35 35 35 35 35 36 36 37 39 38 37 36 35 36 37 35 34 33 32 31 29 28 25 23 24 25 24 24 25 25 24 22 23 24 25 25 24 24 25 23 22 20 18 18 19 20 18 14 12 13 13 12 13 11 8 8
11 9 8 7 7 6 5 4 5 6 7 6 7 9 9 6 6 8 10 12 16 15 13 14 14 14 14 13 12 14 14 15 16 16 17 18 21 26 29 31 34 35 35 35 36 36 36 37 37 37 38 38 37 35 36 37 37 35 34 33 32 31 30 28 27 27 28 27 27 27 26 24 23 25 26 26 27 27 26 26 25 23 21 20 19 19 19 17 14 13 15 15 14 14 12 10 11
11 8 6 7 5 5 6 5 4 6 6 7 8 8 8 6 5 12 14 14 17 17 16 17 17 16 14 14 13 12 13 15 16 15 15 16 16 18 23 28 31 34 36 36 36 36 35 36 37 37 37 38 37 36 36 37 37 36 35 34 33 32 32 31 30 30 30 29 29 29 27 26 27 27 28 28 29 28 27 27 26 25 24 22 20 19 17 16 15 15 16 16 15 15 14 12 12
10 10 7 7 6 6 7 6 4 5 5 7 10 9 8 6 5 13 17 16 18 19 19 19 19 18 17 16 15 13 13 15 15 15 15 15 16 17 21 27 30 33 36 37 36 36 36 36 38 38 37 38 38 37 36 36 37 37 36 35 34 33 33 33 32 31 31 31 31 30 29 29 30 30 30 30 30 30 28 27 27 26 26 23 20 21 19 15 16 17 17 16 15 14 15 15 14
11 10 7 7 7 7 7 5 4 4 4 6 9 7 6 5 6 13 18 17 17 18 18 19 19 19 18 17 16 14 15 14 14 15 16 16 17 19 22 27 30 32 36 36 36 37 37 36 38 39 37 38 38 37 37 37 37 37 37 36 35 34 34 35 35 32 32 33 32 32 31 31 31 32 32 31 31 32 30 27 27 27 26 23 21 22 20 16 18 19 17 15 14 13 13 15 16
8 8 9 10 9 6 3 3 3 3 3 4 5 5 4 5 7 10 15 16 17 17 17 17 19 20 18 15 15 14 13 14 13 14 15 16 17 18 22 27 29 31 34 36 36 37 37 37 38 40 39 39 39 38 37 37 37 37 37 37 36 36 35 35 36 33 32 34 34 34 33 32 32 33 33 32 32 32 31 29 28 27 25 23 23 23 21 19 19 19 17 15 15 14 13 14 15
5 9 12 8 6 6 3 4 4 3 5 6 5 6 4 3 5 5 8 13 16 16 16 17 18 19 18 14 14 15 15 15 14 14 15 16 16 18 23 28 29 30 33 36 37 37 37 37 38 39 39 39 39 39 38 37 36 37 38 38 37 37 37 37 37 34 32 34 35 35 34 33 33 33 32 33 33 33 32 31 30 28 25 25 25 24 22 20 20 19 18 17 17 16 15 15 15
4 6 8 3 4 7 4 4 5 4 6 5 6 8 5 3 4 6 8 10 14 15 14 15 15 17 19 17 16 17 18 17 16 16 16 16 16 18 22 28 31 33 35 37 38 37 37 37 39 40 39 39 40 39 39 38 37 37 37 38 38 38 39 39 37 35 33 35 36 35 34 34 34 33 32 32 33 34 34 32 30 28 27 26 25 24 23 21 20 20 20 19 18 17 17 17 17
10 5 5 5 7 9 6 4 6 6 7 4 6 8 6 6 5 7 12 10 12 14 14 14 13 15 19 20 20 20 19 17 16 17 16 15 16 17 21 27 31 34 35 36 38 37 37 37 38 40 41 41 41 40 39 39 38 37 37 39 40 39 40 39 37 35 35 36 37 36 35 35 35 34 33 33 32 32 34 34 31 29 29 27 25 24 24 22 21 20 21 22 20 19 18 16 17
12 9 7 7 6 6 6 5 4 5 6 5 6 7 5 6 5 8 12 12 12 13 15 16 15 15 18 19 19 19 18 17 16 17 17 17 18 19 24 29 31 33 34 34 36 37 36 36 37 39 39 40 40 40 40 39 39 37 36 38 40 40 40 40 38 37 36 37 38 37 36 36 36 35 35 35 33 31 34 35 33 31 30 28 26 25 24 23 22 20 21 22 21 21 20 16 15
11 10 10 8 4 3 5 6 6 6 5 4 5 6 5 5 6 7 9 9 12 12 13 15 15 15 19 20 20 19 18 17 18 17 17 18 19 19 25 30 31 31 32 33 36 37 37 36 36 37 38 39 40 40 40 39 38 38 37 39 40 41 41 40 39 38 37 37 38 38 37 36 36 36 36 37 36 34 34 35 34 32 30 29 28 26 25 24 24 23 22 22 21 20 21 19 16
11 10 11 10 5 4 5 7 8 8 6 4 4 5 6 5 5 8 9 8 10 11 12 13 13 14 17 20 20 19 18 17 18 18 17 18 18 17 21 26 27 28 30 33 36 37 36 36 36 37 38 39 40 40 40 39 39 39 39 40 40 41 41 40 40 38 37 38 38 39 39 37 36 37 37 37 37 36 35 35 34 32 31 30 29 28 26 25 26 26 25 24 23 22 22 21 20
Wind_Direction
148 151 154 138 141 150 116 280 286 276 229 262 242 159 67 42 111 144 171 186 178 108 110 98 93 81 85 94 104 76 34 32 167 135 137 140 146 151 146 148 151 145 139 136 140 142 141 140 138 138 137 135 133 130 128 128 127 126 125 125 125 122 118 115 113 111 111 113 112 111 109 108 107 108 110 110 107 104 101 99 97 93 91 87 84 83 80 77 78 81 81 80 79 75 72 72 72
151 152 149 128 128 135 64 267 348 307 283 294 250 98 63 65 102 148 129 123 98 94 94 97 96 92 102 108 100 74 40 21 66 91 98 128 135 147 147 147 148 143 139 138 141 143 143 142 140 139 139 137 135 131 131 130 129 129 128 128 128 124 120 118 116 114 115 115 113 111 110 111 111 112 112 110 106 104 102 100 98 96 94 89 83 80 78 76 74 73 75 78 78 76 74 73 71
149 153 155 142 127 138 39 178 264 283 312 311 308 86 132 119 148 132 104 104 105 110 104 103 94 91 93 78 68 80 77 43 75 90 113 133 136 147 145 143 147 143 139 139 140 142 142 142 140 139 140 138 136 132 131 131 131 133 132 131 130 126 123 121 119 118 118 116 113 112 113 114 113 112 110 107 105 104 103 100 97 94 91 87 83 79 78 75 70 66 70 74 72 70 76 78 76
151 162 164 159 141 169 176 214 220 302 295 253 276 171 152 150 160 121 106 111 106 96 92 96 83 84 87 88 91 91 104 90 94 105 125 145 146 146 144 144 147 141 140 141 141 143 142 143 141 139 139 138 136 133 131 133 133 135 135 134 133 129 126 124 123 122 121 118 115 115 116 115 111 110 109 106 106 105 102 97 92 87 86 86 85 81 80 74 67 63 65 70 68 67 72 76 77
155 166 165 167 141 169 220 254 202 62 252 218 277 223 153 153 135 121 124 121 106 95 89 92 91 89 85 95 110 97 117 120 116 113 118 140 144 144 144 143 141 139 142 143 144 145 144 144 143 142 140 139 138 134 134 136 135 136 136 136 134 132 130 128 126 125 124 119 118 120 120 117 114 111 110 108 108 107 100 91 86 83 85 87 86 83 82 76 69 65 63 68 69 69 68 67 71
150 153 160 170 112 177 197 281 266 245 249 235 289 274 139 133 126 132 135 115 106 105 97 90 94 90 78 84 90 111 132 124 117 119 125 137 144 144 142 140 138 139 144 147 148 148 147 147 145 145 143 142 141 138 137 137 137 138 137 137 136 134 133 131 128 127 126 122 122 124 123 122 118 112 108 107 107 106 98 89 86 83 83 84 81 78 79 78 71 68 65 70 69 70 66 59 67
153 141 157 177 111 196 142 189 240 247 259 231 229 267 124 122 136 131 116 110 105 102 104 105 106 94 82 94 92 107 117 119 122 133 136 139 142 141 140 139 137 137 143 148 149 150 150 148 147 147 144 144 142 139 139 139 139 140 139 137 134 135 134 132 131 131 128 125 128 129 127 126 120 113 106 106 107 103 95 90 87 81 78 78 75 68 69 72 68 73 67 68 70 71 67 58 69
180 167 175 166 126 225 175 221 224 229 246 196 198 236 129 127 143 127 118 120 115 116 115 112 106 91 81 91 91 101 109 116 127 134 137 139 141 142 142 139 137 138 143 149 149 150 151 149 148 148 146 144 142 141 141 140 142 143 142 140 137 136 135 136 136 135 132 131 133 133 130 128 122 114 106 107 109 101 92 88 83 76 71 68 66 62 63 65 61 72 63 61 73 75 67 62 76
191 193 44 109 210 272 248 267 246 225 208 172 188 190 132 114 80 111 127 123 118 122 113 109 102 96 98 94 96 101 105 117 127 133 137 140 144 144 143 139 139 140 143 148 149 149 150 151 151 150 148 146 146 147 147 146 146 145 144 144 142 142 142 142 141 139 139 139 139 136 132 130 124 114 107 109 109 99 90 83 73 67 66 58 54 53 57 63 57 62 68 70 80 78 70 72 84
143 213 236 241 241 293 277 282 262 200 169 151 163 144 127 111 88 155 130 121 114 107 103 102 97 104 113 103 103 112 115 124 130 136 140 141 144 145 143 140 141 142 145 147 148 149 150 151 153 152 150 151 152 153 153 152 150 148 147 146 145 147 147 146 144 145 146 145 142 139 136 133 128 116 110 111 106 96 88 78 66 60 59 54 49 48 53 65 60 64 79 85 84 80 78 81 87
135 230 212 244 237 273 271 288 284 141 129 123 125 127 132 132 153 166 112 104 102 106 113 103 98 108 110 100 102 124 128 132 136 141 145 145 145 145 145 144 143 145 149 148 148 149 149 151 152 151 151 153 154 154 155 154 153 152 149 148 147 149 149 150 149 150 151 149 145 143 142 139 130 119 114 113 106 98 85 72 62 56 53 49 45 46 54 67 68 73 87 92 89 85 82 84 89
169 229 203 252 222 248 256 285 280 141 124 129 134 130 128 146 155 127 103 108 114 121 127 111 116 116 105 108 116 132 135 138 140 144 148 148 147 147 147 146 146 148 151 151 150 151 151 153 153 152 152 152 152 153 155 154 154 153 152 153 152 151 152 155 155 155 155 153 150 148 149 144 132 124 119 115 109 100 86 72 61 54 50 44 40 45 55 71 78 85 93 95 92 87 83 84 87
202 234 171 269 230 236 254 273 265 147 121 128 133 118 121 158 143 121 115 128 128 123 121 120 131 122 111 121 129 140 140 139 141 145 148 148 149 149 147 146 147 148 151 152 152 153 154 154 154 153 152 151 152 153 154 154 154 154 155 157 156 154 156 160 161 160 158 156 155 154 155 150 135 129 123 116 108 98 85 70 57 48 46 41 39 50 61 78 90 93 96 94 91 87 83 83 85
203 254 136 255 276 268 267 271 256 124 98 107 124 135 137 138 126 125 131 131 118 123 129 130 130 114 117 133 139 153 139 140 146 149 149 147 149 148 145 146 148 149 152 154 154 155 155 154 154 152 153 154 154 155 155 153 153 155 157 158 156 156 159 162 165 164 160 158 160 161 160 153 139 133 128 117 102 92 87 74 56 42 39 36 38 59 74 91 101 101 101 99 98 91 85 86 86
183 294 180 276 299 287 280 267 223 112 117 137 155 160 134 114 105 109 124 122 109 127 128 131 136 115 142 156 149 156 142 143 149 149 147 146 148 148 147 146 147 150 153 155 156 156 155 155 155 154 156 156 156 157 157 156 156 158 160 158 158 159 160 163 166 166 163 163 165 165 161 155 146 140 139 133 112 96 91 80 58 36 32 35 42 66 84 101 109 110 111 109 106 97 90 89 89
160 30 38 345 292 295 286 280 42 100 142 137 139 140 124 130 125 103 116 118 115 135 128 145 166 132 155 161 142 147 144 144 147 147 146 146 148 149 148 144 145 150 153 157 157 156 157 157 158 159 159 158 158 159 159 160 161 163 162 161 161 162 164 164 167 168 166 168 167 163 161 157 154 150 151 145 124 116 100 75 56 31 30 47 56 75 92 108 114 114 116 115 108 98 92 90 88
127 83 62 278 275 304 286 309 40 113 114 99 109 110 124 131 112 104 118 119 126 145 138 150 148 129 145 148 141 143 143 144 145 145 146 147 148 146 145 145 148 151 154 159 158 158 160 161 161 161 162 160 160 160 161 163 164 164 164 163 164 165 166 166 168 170 169 169 166 165 165 160 159 155 154 154 142 140 122 92 74 40 45 73 82 94 101 113 118 117 120 119 109 96 91 89 81
128 126 183 245 263 268 274 318 7 138 115 122 148 131 146 126 112 120 123 121 134 144 143 144 133 128 133 134 136 138 142 145 145 146 147 149 148 147 147 148 150 152 156 161 162 162 164 166 164 162 163 163 162 163 163 163 164 166 165 166 167 168 168 170 171 172 172 172 171 172 170 163 163 163 164 163 170 191 132 117 129 82 74 95 102 113 119 123 122 121 122 119 115 98 88 83 72
148 209 220 251 247 249 284 317 311 140 127 163 156 147 152 121 125 144 136 135 146 146 148 141 125 126 129 132 135 137 145 147 147 150 150 152 154 152 151 150 150 153 158 163 165 165 167 169 166 164 164 164 165 165 165 166 166 167 168 168 171 171 173 177 178 177 176 176 177 178 173 167 175 191 187 173 187 208 143 137 168 125 94 111 117 127 136 134 127 130 125 111 103 82 70 67 64
170 202 231 252 255 289 333 309 294 296 142 171 156 148 133 128 154 160 143 145 155 150 141 131 124 132 139 140 140 144 150 150 151 154 153 155 155 153 152 153 155 158 160 163 165 165 169 170 167 168 164 164 169 170 170 169 169 170 171 172 174 176 178 181 183 183 180 181 180 179 176 175 190 207 197 183 201 202 151 160 206 211 206 163 143 136 146 149 147 154 150 158 226 35 50 45 49
173 193 222 248 255 313 316 288 285 287 155 179 157 139 129 153 173 149 149 151 158 151 137 136 138 142 145 145 147 151 152 152 156 157 156 156 154 155 157 159 159 160 160 161 163 164 169 170 170 170 166 168 174 175 174 173 173 173 174 177 178 180 182 184 185 184 184 189 185 181 182 183 195 207 195 187 199 188 168 203 226 228 228 223 212 153 167 170 179 195 178 199 255 291 313 12 38
183 202 211 235 245 225 232 257 266 262 183 188 151 136 137 162 167 151 160 165 167 154 141 142 145 147 149 149 151 156 154 155 161 161 160 158 158 159 160 162 161 161 161 162 163 165 169 170 172 173 170 174 178 180 179 178 177 177 179 181 182 183 185 187 184 185 192 201 197 192 193 192 198 207 203 193 183 173 190 209 210 229 234 335 318 322 180 148 218 242 231 227 282 293 281 38 53
195 211 207 223 231 229 231 245 249 215 177 197 150 135 140 162 178 162 174 186 161 144 140 142 146 150 151 150 153 158 158 160 165 164 164 162 162 162 163 164 164 163 163 165 165 166 170 170 174 174 173 177 181 182 180 181 180 181 184 183 186 187 189 190 185 185 194 205 207 197 193 196 204 211 219 215 181 179 201 202 207 240 194 33 27 82 158 93 51 267 261 259 54 32 278 101 70
197 210 203 215 211 214 240 255 253 181 176 181 142 126 146 178 184 165 190 173 134 132 138 141 146 151 152 155 158 161 160 165 169 164 165 166 164 163 163 164 166 164 162 166 167 168 171 172 175 176 178 180 181 181 181 183 180 183 187 184 189 190 190 191 187 190 194 205 209 195 192 201 208 211 220 220 187 188 208 200 203 194 158 62 46 99 139 170 123 211 274 102 86 50 48 95 45
214 210 195 201 187 206 230 247 254 195 171 154 144 138 172 195 142 151 174 123 124 132 138 141 144 150 155 160 161 161 163 168 169 163 165 169 166 165 164 162 167 166 161 165 168 170 173 174 176 177 180 181 179 181 183 185 181 184 188 185 191 193 193 193 191 198 198 203 206 193 194 203 209 208 210 209 190 187 183 171 147 149 144 97 118 90 68 143 133 144 149 92 84 49 51 303 300
232 220 198 188 175 200 213 225 239 203 160 148 160 163 198 199 126 160 144 119 128 134 138 144 146 153 160 163 164 163 164 168 170 167 167 168 166 167 167 162 167 171 164 166 170 172 173 175 178 179 181 179 179 183 185 185 183 184 188 187 191 194 197 197 196 203 203 205 207 195 194 202 204 193 189 190 185 179 167 162 135 130 113 112 136 112 63 135 134 137 148 144 123 120 147 322 328
254 243 200 184 186 202 204 218 229 192 156 156 165 165 185 176 136 187 130 122 132 135 142 149 149 157 162 164 163 164 169 170 173 171 167 168 168 169 169 164 169 173 165 167 173 173 174 176 179 180 182 180 178 183 185 186 184 185 191 189 188 192 198 198 196 203 204 204 203 191 190 198 193 170 167 172 173 177 178 170 134 145 148 121 128 147 150 159 177 170 168 171 166 172 158 85 342
266 262 210 185 195 201 197 217 231 195 156 158 163 166 170 159 173 185 130 129 136 140 146 151 152 158 161 163 161 164 175 173 173 173 170 172 172 170 170 167 172 175 169 170 174 175 176 178 179 181 183 181 179 181 184 186 185 188 192 188 186 188 194 196 195 201 203 203 200 190 189 195 194 183 177 178 185 195 184 159 142 149 160 138 134 168 188 180 188 208 188 166 140 145 142 139 309
270 265 249 211 200 192 190 209 235 225 162 158 156 158 165 170 196 162 136 136 139 141 146 152 157 157 161 165 160 166 177 174 175 177 174 173 173 172 170 170 172 173 171 172 173 176 179 178 179 183 184 183 182 182 184 185 186 189 190 186 187 188 189 194 192 194 196 194 190 187 189 196 200 200 203 205 206 206 184 161 148 154 169 172 180 193 211 207 178 180 164 138 138 147 133 168 239
276 273 281 267 222 202 190 191 234 234 174 158 147 151 173 188 201 154 140 143 139 141 148 154 158 158 165 167 162 171 179 177 175 180 178 172 172 173 170 171 171 170 170 171 173 176 178 178 180 184 184 184 184 184 184 186 186 187 188 185 189 191 192 195 190 189 195 194 188 189 197 203 203 203 208 211 204 200 185 165 162 176 185 197 207 204 209 206 195 180 163 148 150 166 259 218 237
272 269 264 251 270 247 195 184 227 222 168 156 142 146 171 189 198 154 148 149 140 143 150 154 158 160 168 166 164 174 183 179 172 179 180 171 172 174 172 170 171 171 170 171 175 177 178 178 180 182 184 184 184 185 185 188 187 187 190 187 190 194 194 197 193 192 201 202 200 207 213 212 210 210 215 217 209 209 192 174 191 200 196 209 218 206 208 210 206 193 180 168 166 191 216 211 252
278 259 251 225 199 265 225 189 206 199 162 155 144 155 171 187 192 153 155 151 141 148 153 155 161 162 167 165 165 174 183 175 167 177 180 174 176 176 174 171 171 173 174 174 175 177 180 181 180 180 184 184 184 187 187 189 188 188 193 191 192 195 194 196 193 192 201 205 208 215 216 214 214 213 218 219 212 212 192 175 196 204 196 203 204 194 210 201 192 188 181 176 184 200 213 222 279
282 253 247 253 203 243 241 186 184 170 156 159 154 168 166 183 186 150 158 155 145 152 153 158 164 162 166 165 166 172 181 177 168 177 179 178 182 179 177 175 173 175 179 179 175 176 180 181 181 180 184 186 185 187 186 189 190 189 192 193 193 195 194 194 193 197 203 206 213 216 215 218 218 215 218 216 209 204 185 173 192 200 196 199 192 192 206 192 189 189 169 161 191 210 242 270 286
279 257 238 257 235 236 228 176 175 155 148 170 171 177 166 167 171 152 160 161 152 155 155 162 165 162 167 166 168 173 181 185 177 179 180 181 185 183 180 178 176 176 180 183 179 178 180 180 181 182 186 189 189 188 185 188 191 189 191 193 195 197 198 196 196 200 201 206 214 212 210 218 220 216 214 208 206 199 179 176 202 204 201 204 201 195 192 193 198 194 166 151 182 240 257 279 274
250 248 224 240 246 249 222 174 176 161 154 170 172 193 189 161 169 168 165 166 162 160 158 163 164 163 168 166 170 175 184 191 184 180 180 181 185 185 182 181 179 176 180 184 183 182 182 181 181 182 185 189 190 191 189 187 188 189 192 194 195 199 199 196 200 202 202 208 209 204 206 216 216 211 209 203 206 201 181 187 208 200 202 211 212 206 194 191 176 162 165 173 194 228 211 227 256
240 243 231 221 231 246 235 188 170 167 164 166 164 189 191 157 178 189 168 168 169 165 161 164 165 165 169 168 170 177 185 194 187 180 178 178 183 186 184 182 181 178 180 183 184 186 187 184 182 181 182 186 188 190 191 191 188 188 193 197 199 199 195 194 201 200 199 206 206 205 210 213 212 210 210 205 207 202 186 198 206 195 205 216 216 217 192 179 162 157 178 194 193 191 194 212 225
243 251 249 242 234 236 236 198 165 165 166 171 167 181 181 161 178 185 165 169 175 170 165 167 167 166 170 170 171 178 186 191 185 181 178 177 180 184 184 182 181 180 180 182 183 186 189 187 185 185 183 184 187 187 190 193 191 190 193 198 202 203 198 196 199 199 198 202 205 210 211 213 215 217 218 211 209 203 194 202 209 208 218 220 220 211 178 169 166 169 186 195 179 183 205 227 207
240 252 263 266 261 254 252 200 162 165 172 177 172 179 182 169 172 175 163 169 180 176 171 171 170 167 170 172 172 178 184 182 182 183 180 177 179 183 183 181 181 182 182 183 184 185 188 188 188 190 187 185 187 188 189 192 193 194 195 197 201 204 204 204 206 207 205 205 208 212 214 216 216 218 221 213 206 205 204 208 214 220 222 221 215 184 169 174 177 178 184 189 189 202 261 270 186
240 246 256 265 271 279 285 249 170 169 175 172 173 179 182 168 165 174 170 171 182 178 173 174 171 167 170 174 174 175 178 177 180 185 183 180 180 182 182 182 184 185 185 185 185 186 187 189 190 192 191 189 189 190 191 194 196 197 197 199 200 202 207 209 209 208 205 206 212 215 215 216 215 217 218 209 204 207 213 217 218 223 222 216 197 173 173 182 183 189 194 194 193 207 259 232 167
240 244 245 253 262 269 285 273 193 179 170 160 173 178 169 158 160 181 186 176 182 181 177 177 175 171 172 176 175 172 175 177 179 183 186 183 181 182 183 184 185 185 186 187 186 186 189 191 191 192 194 194 191 191 194 197 198 197 199 200 200 204 211 211 208 209 207 206 211 216 216 216 215 216 214 208 206 209 215 218 219 223 218 201 184 174 175 177 178 192 199 195 187 181 243 204 177
229 237 244 249 254 257 262 269 244 187 164 157 163 166 162 161 166 185 192 183 190 187 181 182 179 176 174 175 175 173 174 177 177 181 185 184 183 184 184 185 184 184 186 189 189 188 190 192 193 193 194 196 194 192 194 197 196 194 197 198 198 204 205 199 200 206 207 206 210 214 213 211 212 215 213 209 209 210 213 216 219 217 197 179 176 176 178 181 186 192 189 190 190 184 174 174 187
222 226 236 247 257 262 260 266 276 143 162 169 150 164 213 182 175 182 185 189 200 195 186 188 184 177 174 174 177 177 176 177 176 179 183 185 184 184 186 185 184 185 187 190 191 191 191 192 193 194 194 197 197 194 195 197 193 191 193 192 192 195 191 189 197 204 206 206 207 207 205 207 214 217 212 209 210 211 211 212 210 195 177 170 173 176 181 187 188 185 183 185 184 183 166 156 169
230 215 220 236 251 262 265 270 280 140 183 190 172 188 217 192 188 184 182 190 199 200 192 191 185 176 177 176 179 179 177 177 177 179 182 185 185 184 186 186 186 188 189 190 190 191 192 191 192 194 195 196 198 197 196 195 192 191 194 193 191 191 189 192 202 208 206 203 201 202 205 210 216 216 209 208 210 208 206 199 188 177 172 172 174 181 187 185 178 173 175 176 174 173 160 144 130
230 216 211 221 234 248 260 270 272 233 199 189 188 189 168 194 205 187 182 187 195 201 197 192 185 179 182 181 180 180 178 177 177 180 181 183 186 186 186 188 189 191 191 190 190 191 192 192 192 193 193 194 197 198 197 195 193 192 193 195 195 196 195 196 201 202 200 201 203 205 209 212 212 209 205 206 206 203 197 185 177 176 177 178 180 185 185 179 172 167 172 177 180 185 173 150 143
224 223 227 225 225 235 246 257 263 247 235 215 197 185 172 218 213 184 181 184 196 204 197 190 188 185 187 185 181 180 179 178 177 179 182 184 185 186 187 188 190 192 192 191 192 192 192 192 191 191 193 194 196 198 198 197 196 193 193 194 196 199 200 198 201 202 199 203 208 209 209 207 203 202 204 204 201 198 191 179 178 184 181 178 181 180 177 175 172 175 183 183 175 176 175 163 154
218 220 235 242 236 234 235 240 254 246 237 239 203 182 181 234 207 176 175 183 196 203 197 193 195 196 196 189 182 181 179 178 178 179 181 184 186 187 186 186 188 191 192 193 194 194 193 191 191 191 193 195 196 198 198 198 197 195 193 194 194 197 199 199 203 205 204 205 207 205 201 198 196 197 200 200 198 195 189 180 181 189 186 180 179 178 179 180 177 183 185 173 158 159 167 170 161
218 218 230 246 250 247 240 234 238 249 244 233 212 194 190 216 211 182 176 183 185 187 192 196 199 202 201 194 183 179 178 178 178 180 182 184 185 185 184 184 188 190 191 192 193 193 193 193 192 193 194 195 196 197 197 196 197 195 194 194 194 195 195 197 202 205 206 204 201 195 192 193 195 195 194 196 197 193 186 181 182 189 188 184 184 184 186 185 181 181 174 164 160 161 168 174 165
217 216 216 233 254 264 265 249 221 233 243 224 225 223 210 218 219 195 187 182 178 180 188 192 196 201 201 196 187 178 176 178 179 180 181 182 182 182 183 184 187 188 189 191 192 192 193 193 193 193 194 195 195 196 196 196 196 195 195 195 195 194 193 194 199 203 204 202 195 188 188 193 193 191 192 194 193 188 185 184 185 188 186 183 183 182 184 187 185 177 170 170 170 169 171 174 173
210 212 203 208 229 242 242 251 221 222 242 222 222 239 234 235 210 189 189 184 180 183 187 190 194 198 197 194 191 183 175 176 180 182 180 180 180 181 184 185 185 187 189 190 190 191 191 192 192 192 193 194 194 195 195 196 195 196 195 195 195 194 193 194 198 202 202 197 191 187 189 192 188 188 193 191 187 185 187 189 189 189 187 184 182 182 184 189 188 178 172 178 183 185 184 182 184
204 206 198 195 205 215 222 237 232 226 242 222 218 230 235 253 222 186 188 189 184 185 188 190 192 195 193 189 188 186 179 177 180 182 181 180 182 183 185 185 185 187 189 189 189 189 190 190 191 192 193 193 193 194 195 196 196 196 196 196 196 195 195 197 200 203 201 193 190 192 194 192 188 189 193 191 186 186 190 193 193 192 187 182 183 186 189 187 183 180 178 184 188 189 191 191 191
208 207 203 209 207 209 211 212 220 237 253 232 226 226 205 219 219 191 192 194 189 188 188 188 191 195 193 187 187 185 181 180 177 179 183 183 183 184 184 185 186 188 189 188 189 188 188 188 189 190 191 191 192 193 195 196 196 196 196 196 196 196 197 199 202 205 200 193 193 197 198 195 192 192 193 192 188 188 192 193 190 186 182 180 180 182 187 184 177 176 181 187 184 180 185 189 190
207 197 210 222 207 203 214 210 218 236 252 246 234 226 192 205 221 197 192 193 191 192 188 184 189 194 193 187 185 187 185 182 178 177 181 184 184 182 183 186 187 187 188 189 190 189 187 187 187 188 189 190 192 193 195 196 196 196 195 195 196 197 199 201 203 205 201 196 198 199 199 198 197 196 195 193 189 190 194 192 187 184 185 188 185 182 185 185 179 176 179 186 187 185 186 187 190
187 192 216 225 195 198 225 246 254 244 234 236 231 243 245 246 261 242 207 194 188 189 185 186 189 188 189 187 185 188 188 186 183 178 179 180 182 183 185 187 186 186 188 190 191 190 188 186 185 187 188 189 191 192 194 196 196 195 195 195 196 197 199 202 203 203 202 201 201 201 200 200 200 198 196 194 192 193 195 193 190 191 194 195 190 187 189 190 189 186 182 185 192 195 194 195 199
193 192 207 214 221 217 200 217 239 238 239 228 220 240 237 211 244 251 236 206 188 188 185 187 188 179 181 186 188 189 189 189 185 182 184 181 180 184 186 187 187 187 189 190 190 189 188 187 186 186 186 187 190 191 193 196 196 196 195 195 196 198 201 203 202 201 202 202 200 200 201 201 200 199 196 194 194 195 194 194 194 195 196 195 192 192 195 196 198 196 192 192 195 197 198 201 206
220 219 182 177 216 212 183 192 205 216 240 240 234 245 227 200 202 211 221 210 188 191 189 189 188 174 175 183 186 187 188 189 186 186 189 186 183 187 187 188 189 188 189 188 188 188 188 187 186 186 187 188 189 191 193 195 197 197 196 197 198 200 202 203 202 201 201 201 200 200 201 201 200 200 198 195 196 196 195 195 195 194 193 194 195 195 197 199 201 201 199 199 199 200 202 207 211
219 234 219 205 209 191 181 201 200 208 227 224 233 248 234 218 203 194 210 207 192 192 187 191 192 176 175 182 184 187 187 187 188 189 190 189 190 191 190 190 189 188 188 185 185 187 187 187 186 186 187 188 189 191 193 195 196 197 198 198 199 200 202 203 201 201 201 200 201 201 202 201 201 200 199 198 197 194 193 194 194 191 191 194 197 197 198 200 200 201 200 201 205 205 205 211 214
204 219 224 224 214 164 174 202 209 212 216 198 209 233 246 234 205 200 218 214 205 200 187 191 193 179 178 183 185 186 188 188 188 189 189 190 194 195 193 192 189 186 184 182 184 187 187 187 186 185 186 186 189 191 193 194 195 197 198 200 199 200 202 203 202 202 201 200 202 203 203 202 201 199 198 198 198 195 192 192 192 192 193 195 197 197 199 200 199 200 203 203 205 205 207 215 218
196 207 218 222 211 178 190 215 217 211 216 210 204 239 256 250 222 209 220 224 209 200 190 192 197 188 183 188 187 183 185 187 186 188 190 190 194 196 191 188 186 184 183 182 184 185 186 187 187 186 186 188 190 191 192 194 194 197 200 201 200 200 201 203 202 202 202 201 202 202 202 201 200 199 199 199 199 199 197 195 194 196 196 197 199 200 199 199 198 200 204 204 204 205 210 216 219